Time,TemperatureF,DewpointF,PressureIn,WindDirection,WindDirectionDegrees,WindSpeedMPH,WindSpeedGustMPH,Humidity,HourlyPrecipIn,Conditions,Clouds,dailyrainin,SoftwareType,DateUTC
2013-01-27 00:03:00,47.1,32.6,30.17,SSE,157,0.0,5.4,57,0.00,,,0.00,WUHU21623XXSP,2013-01-27 06:03:00,
2013-01-27 00:08:00,47.1,33.1,30.16,SSE,157,0.0,2.2,58,0.00,,,0.00,WUHU21623XXSP,2013-01-27 06:08:00,
2013-01-27 00:13:00,47.1,33.5,30.17,SW,225,8.3,9.6,59,0.00,,,0.00,WUHU21623XXSP,2013-01-27 06:13:00,
2013-01-27 00:18:00,46.9,33.3,30.16,SSW,202,6.5,9.6,59,0.00,,,0.00,WUHU21623XXSP,2013-01-27 06:18:00,
2013-01-27 00:23:00,46.9,33.3,30.17,SSW,202,0.0,6.5,59,0.00,,,0.00,WUHU21623XXSP,2013-01-27 06:23:00,
2013-01-27 00:28:00,46.8,33.6,30.16,SSE,157,0.0,1.1,60,0.00,,,0.00,WUHU21623XXSP,2013-01-27 06:28:00,
2013-01-27 00:33:00,46.6,33.4,30.17,South,180,0.0,1.1,60,0.00,,,0.00,WUHU21623XXSP,2013-01-27 06:33:00,
2013-01-27 00:38:00,46.6,33.8,30.17,SSW,202,0.0,1.1,61,0.00,,,0.00,WUHU21623XXSP,2013-01-27 06:38:00,
2013-01-27 00:43:00,46.6,34.2,30.16,SSE,157,0.0,6.9,62,0.00,,,0.00,WUHU21623XXSP,2013-01-27 06:43:00,
2013-01-27 00:48:00,46.6,34.2,30.17,South,180,0.0,6.9,62,0.00,,,0.00,WUHU21623XXSP,2013-01-27 06:48:00,
2013-01-27 00:53:00,46.6,34.6,30.16,SSE,157,0.0,7.8,63,0.00,,,0.00,WUHU21623XXSP,2013-01-27 06:53:00,
2013-01-27 00:58:00,46.6,34.2,30.16,South,180,0.0,7.8,62,0.00,,,0.00,WUHU21623XXSP,2013-01-27 06:58:00,
2013-01-27 01:03:00,46.8,34.4,30.16,SSW,202,0.0,2.5,62,0.00,,,0.00,WUHU21623XXSP,2013-01-27 07:03:00,
2013-01-27 01:08:00,46.8,34.4,30.16,SSE,157,0.0,2.5,62,0.00,,,0.00,WUHU21623XXSP,2013-01-27 07:08:00,
2013-01-27 01:13:00,46.8,34.4,30.16,South,180,1.6,1.6,62,0.00,,,0.00,WUHU21623XXSP,2013-01-27 07:13:00,
2013-01-27 01:18:00,46.8,34.8,30.16,SSE,157,0.0,4.9,63,0.00,,,0.00,WUHU21623XXSP,2013-01-27 07:18:00,
2013-01-27 01:23:00,46.9,35.0,30.15,South,180,0.0,4.9,63,0.00,,,0.00,WUHU21623XXSP,2013-01-27 07:23:00,
2013-01-27 01:28:00,46.9,35.0,30.15,SSW,202,0.0,12.8,63,0.00,,,0.00,WUHU21623XXSP,2013-01-27 07:28:00,
2013-01-27 01:33:00,46.9,35.0,30.16,ESE,112,0.0,12.8,63,0.00,,,0.00,WUHU21623XXSP,2013-01-27 07:33:00,
2013-01-27 01:38:00,47.1,35.1,30.15,SE,135,3.6,7.2,63,0.00,,,0.00,WUHU21623XXSP,2013-01-27 07:38:00,
2013-01-27 01:43:00,47.1,35.5,30.15,SSE,157,2.5,7.6,64,0.00,,,0.00,WUHU21623XXSP,2013-01-27 07:43:00,
2013-01-27 01:48:00,47.1,35.1,30.15,SSE,157,0.0,7.6,63,0.00,,,0.00,WUHU21623XXSP,2013-01-27 07:48:00,
2013-01-27 01:53:00,47.1,35.5,30.15,SSE,157,6.0,6.3,64,0.00,,,0.00,WUHU21623XXSP,2013-01-27 07:53:00,
2013-01-27 01:58:00,47.1,35.9,30.15,SSW,202,0.0,7.4,65,0.00,,,0.00,WUHU21623XXSP,2013-01-27 07:58:00,
2013-01-27 02:03:00,47.3,36.1,30.15,South,180,0.0,8.5,65,0.00,,,0.00,WUHU21623XXSP,2013-01-27 08:03:00,
2013-01-27 02:08:00,47.3,36.5,30.15,SSE,157,1.6,8.9,66,0.00,,,0.00,WUHU21623XXSP,2013-01-27 08:08:00,
2013-01-27 02:13:00,47.3,36.1,30.14,South,180,0.0,8.9,65,0.00,,,0.00,WUHU21623XXSP,2013-01-27 08:13:00,
2013-01-27 02:18:00,47.3,36.5,30.15,South,180,0.0,2.2,66,0.00,,,0.00,WUHU21623XXSP,2013-01-27 08:18:00,
2013-01-27 02:23:00,47.3,36.5,30.14,SSE,157,0.0,2.9,66,0.00,,,0.00,WUHU21623XXSP,2013-01-27 08:23:00,
2013-01-27 02:28:00,47.3,36.5,30.14,SSE,157,0.0,2.9,66,0.00,,,0.00,WUHU21623XXSP,2013-01-27 08:28:00,
2013-01-27 02:33:00,47.3,36.9,30.15,SSE,157,0.0,0.0,67,0.00,,,0.00,WUHU21623XXSP,2013-01-27 08:33:00,
2013-01-27 02:38:00,47.3,36.5,30.14,SSE,157,0.0,0.0,66,0.00,,,0.00,WUHU21623XXSP,2013-01-27 08:38:00,
2013-01-27 02:43:00,47.3,36.5,30.14,SSE,157,0.0,0.0,66,0.00,,,0.00,WUHU21623XXSP,2013-01-27 08:43:00,
2013-01-27 02:48:00,47.3,36.5,30.14,SSE,157,0.0,0.0,66,0.00,,,0.00,WUHU21623XXSP,2013-01-27 08:48:00,
2013-01-27 02:53:00,47.3,37.3,30.14,South,180,0.0,4.3,68,0.00,,,0.00,WUHU21623XXSP,2013-01-27 08:53:00,
2013-01-27 02:58:00,47.5,37.8,30.15,SSE,157,0.0,4.5,69,0.00,,,0.00,WUHU21623XXSP,2013-01-27 08:58:00,
2013-01-27 03:03:00,47.7,38.0,30.14,South,180,0.0,4.5,69,0.00,,,0.00,WUHU21623XXSP,2013-01-27 09:03:00,
2013-01-27 03:08:00,47.8,38.1,30.14,SSE,157,0.0,0.0,69,0.00,,,0.00,WUHU21623XXSP,2013-01-27 09:08:00,
2013-01-27 03:13:00,47.8,38.1,30.14,South,180,0.0,0.0,69,0.00,,,0.00,WUHU21623XXSP,2013-01-27 09:13:00,
2013-01-27 03:18:00,47.8,38.5,30.14,SSE,157,6.5,6.5,70,0.00,,,0.00,WUHU21623XXSP,2013-01-27 09:18:00,
2013-01-27 03:23:00,48.0,38.7,30.14,South,180,0.0,6.5,70,0.00,,,0.00,WUHU21623XXSP,2013-01-27 09:23:00,
2013-01-27 03:28:00,48.0,38.7,30.13,South,180,0.0,5.1,70,0.00,,,0.00,WUHU21623XXSP,2013-01-27 09:28:00,
2013-01-27 03:33:00,48.0,39.0,30.13,SSE,157,0.0,6.5,71,0.00,,,0.00,WUHU21623XXSP,2013-01-27 09:33:00,
2013-01-27 03:38:00,48.0,39.0,30.13,South,180,0.0,6.5,71,0.00,,,0.00,WUHU21623XXSP,2013-01-27 09:38:00,
2013-01-27 03:43:00,48.0,39.0,30.12,SSE,157,0.0,3.4,71,0.00,,,0.00,WUHU21623XXSP,2013-01-27 09:43:00,
2013-01-27 03:48:00,48.0,39.4,30.12,SSW,202,0.0,3.8,72,0.00,,,0.00,WUHU21623XXSP,2013-01-27 09:48:00,
2013-01-27 03:53:00,48.0,39.4,30.13,SSE,157,0.0,4.7,72,0.00,,,0.00,WUHU21623XXSP,2013-01-27 09:53:00,
2013-01-27 03:58:00,48.0,39.4,30.12,South,180,0.0,4.7,72,0.00,,,0.00,WUHU21623XXSP,2013-01-27 09:58:00,
2013-01-27 04:03:00,48.0,39.7,30.12,South,180,0.0,7.2,73,0.00,,,0.00,WUHU21623XXSP,2013-01-27 10:03:00,
2013-01-27 04:08:00,48.0,39.7,30.11,SSE,157,3.1,7.2,73,0.00,,,0.00,WUHU21623XXSP,2013-01-27 10:08:00,
2013-01-27 04:13:00,48.0,39.7,30.11,SSE,157,0.0,3.8,73,0.00,,,0.00,WUHU21623XXSP,2013-01-27 10:13:00,
2013-01-27 04:18:00,48.0,39.7,30.11,South,180,0.0,3.1,73,0.00,,,0.00,WUHU21623XXSP,2013-01-27 10:18:00,
2013-01-27 04:23:00,48.0,39.7,30.11,South,180,0.0,3.1,73,0.00,,,0.00,WUHU21623XXSP,2013-01-27 10:23:00,
2013-01-27 04:28:00,48.0,39.7,30.10,South,180,0.0,5.1,73,0.00,,,0.00,WUHU21623XXSP,2013-01-27 10:28:00,
2013-01-27 04:33:00,48.0,39.7,30.10,SSE,157,0.0,5.1,73,0.00,,,0.00,WUHU21623XXSP,2013-01-27 10:33:00,
2013-01-27 04:38:00,48.0,39.7,30.10,South,180,0.0,4.7,73,0.00,,,0.00,WUHU21623XXSP,2013-01-27 10:38:00,
2013-01-27 04:43:00,48.0,40.0,30.10,SSE,157,0.0,4.7,74,0.00,,,0.00,WUHU21623XXSP,2013-01-27 10:43:00,
2013-01-27 04:48:00,48.0,40.0,30.11,SW,225,0.0,5.8,74,0.00,,,0.00,WUHU21623XXSP,2013-01-27 10:48:00,
2013-01-27 04:53:00,48.2,40.2,30.10,SSW,202,6.9,7.4,74,0.00,,,0.00,WUHU21623XXSP,2013-01-27 10:53:00,
2013-01-27 04:58:00,48.4,40.7,30.10,SSE,157,0.0,7.6,75,0.00,,,0.00,WUHU21623XXSP,2013-01-27 10:58:00,
2013-01-27 05:03:00,48.4,40.7,30.10,SE,135,5.1,7.6,75,0.00,,,0.00,WUHU21623XXSP,2013-01-27 11:03:00,
2013-01-27 05:08:00,48.4,40.7,30.10,SSE,157,1.3,7.8,75,0.00,,,0.00,WUHU21623XXSP,2013-01-27 11:08:00,
2013-01-27 05:13:00,48.4,40.7,30.10,South,180,3.4,8.3,75,0.00,,,0.00,WUHU21623XXSP,2013-01-27 11:13:00,
2013-01-27 05:18:00,48.2,40.5,30.10,South,180,0.0,8.3,75,0.00,,,0.00,WUHU21623XXSP,2013-01-27 11:18:00,
2013-01-27 05:23:00,48.0,40.7,30.10,South,180,2.5,4.3,76,0.00,,,0.00,WUHU21623XXSP,2013-01-27 11:23:00,
2013-01-27 05:28:00,48.0,40.7,30.10,SSE,157,0.0,5.8,76,0.00,,,0.00,WUHU21623XXSP,2013-01-27 11:28:00,
2013-01-27 05:33:00,48.0,40.7,30.10,SSE,157,0.0,5.8,76,0.00,,,0.00,WUHU21623XXSP,2013-01-27 11:33:00,
2013-01-27 05:38:00,48.0,40.7,30.10,South,180,0.0,4.0,76,0.00,,,0.00,WUHU21623XXSP,2013-01-27 11:38:00,
2013-01-27 05:43:00,48.0,41.1,30.10,SSW,202,0.0,5.8,77,0.00,,,0.00,WUHU21623XXSP,2013-01-27 11:43:00,
2013-01-27 05:48:00,48.2,41.2,30.09,SE,135,4.0,6.5,77,0.00,,,0.00,WUHU21623XXSP,2013-01-27 11:48:00,
2013-01-27 05:53:00,48.4,41.4,30.09,South,180,0.0,6.7,77,0.00,,,0.00,WUHU21623XXSP,2013-01-27 11:53:00,
2013-01-27 05:58:00,48.4,41.8,30.10,SSW,202,2.5,9.4,78,0.00,,,0.00,WUHU21623XXSP,2013-01-27 11:58:00,
2013-01-27 06:03:00,48.6,41.9,30.10,SSW,202,3.8,9.4,78,0.00,,,0.00,WUHU21623XXSP,2013-01-27 12:03:00,
2013-01-27 06:08:00,48.7,42.1,30.09,South,180,0.0,6.3,78,0.00,,,0.00,WUHU21623XXSP,2013-01-27 12:08:00,
2013-01-27 06:13:00,48.7,42.1,30.10,South,180,0.0,6.7,78,0.00,,,0.00,WUHU21623XXSP,2013-01-27 12:13:00,
2013-01-27 06:18:00,48.7,42.1,30.10,SSE,157,0.0,6.7,78,0.00,,,0.00,WUHU21623XXSP,2013-01-27 12:18:00,
2013-01-27 06:23:00,48.7,42.1,30.10,South,180,0.0,4.0,78,0.00,,,0.00,WUHU21623XXSP,2013-01-27 12:23:00,
2013-01-27 06:28:00,48.7,42.1,30.10,SSW,202,0.0,2.9,78,0.00,,,0.00,WUHU21623XXSP,2013-01-27 12:28:00,
2013-01-27 06:33:00,48.7,42.1,30.10,SSE,157,0.0,3.1,78,0.00,,,0.00,WUHU21623XXSP,2013-01-27 12:33:00,
2013-01-27 06:38:00,48.9,42.6,30.10,SSE,157,0.0,3.1,79,0.00,,,0.00,WUHU21623XXSP,2013-01-27 12:38:00,
2013-01-27 06:43:00,48.9,42.6,30.10,SSW,202,0.0,1.1,79,0.00,,,0.00,WUHU21623XXSP,2013-01-27 12:43:00,
2013-01-27 06:48:00,48.9,42.6,30.10,South,180,0.0,6.7,79,0.00,,,0.00,WUHU21623XXSP,2013-01-27 12:48:00,
2013-01-27 06:53:00,49.3,43.3,30.10,South,180,0.0,7.4,80,0.00,,,0.00,WUHU21623XXSP,2013-01-27 12:53:00,
2013-01-27 06:58:00,49.6,44.0,30.10,WSW,247,1.8,11.2,81,0.00,,,0.00,WUHU21623XXSP,2013-01-27 12:58:00,
2013-01-27 07:03:00,49.8,44.2,30.10,West,270,2.9,11.2,81,0.00,,,0.00,WUHU21623XXSP,2013-01-27 13:03:00,
2013-01-27 07:08:00,50.2,44.5,30.10,SSE,157,5.1,9.8,81,0.00,,,0.00,WUHU21623XXSP,2013-01-27 13:08:00,
2013-01-27 07:13:00,50.2,44.5,30.10,SSW,202,6.5,9.8,81,0.00,,,0.00,WUHU21623XXSP,2013-01-27 13:13:00,
2013-01-27 07:18:00,50.2,44.9,30.10,SSW,202,2.2,9.4,82,0.00,,,0.00,WUHU21623XXSP,2013-01-27 13:18:00,
2013-01-27 07:23:00,50.2,44.9,30.10,SSW,202,1.1,9.4,82,0.00,,,0.00,WUHU21623XXSP,2013-01-27 13:23:00,
2013-01-27 07:28:00,50.2,44.9,30.10,West,270,0.0,7.4,82,0.00,,,0.00,WUHU21623XXSP,2013-01-27 13:28:00,
2013-01-27 07:33:00,50.4,45.0,30.10,SW,225,1.8,9.2,82,0.00,,,0.00,WUHU21623XXSP,2013-01-27 13:33:00,
2013-01-27 07:38:00,50.4,45.0,30.10,SW,225,2.0,9.2,82,0.00,,,0.00,WUHU21623XXSP,2013-01-27 13:38:00,
2013-01-27 07:43:00,50.4,45.0,30.10,WSW,247,1.6,9.4,82,0.00,,,0.00,WUHU21623XXSP,2013-01-27 13:43:00,
2013-01-27 07:48:00,50.5,45.2,30.10,South,180,4.0,9.4,82,0.00,,,0.00,WUHU21623XXSP,2013-01-27 13:48:00,
2013-01-27 07:53:00,50.5,45.5,30.10,South,180,3.6,15.4,83,0.00,,,0.00,WUHU21623XXSP,2013-01-27 13:53:00,
2013-01-27 07:58:00,50.5,45.5,30.10,SW,225,2.5,15.4,83,0.00,,,0.00,WUHU21623XXSP,2013-01-27 13:58:00,
2013-01-27 08:03:00,50.5,45.5,30.11,SSW,202,10.1,11.9,83,0.00,,,0.00,WUHU21623XXSP,2013-01-27 14:03:00,
2013-01-27 08:08:00,50.5,45.5,30.10,SSE,157,2.2,11.2,83,0.00,,,0.00,WUHU21623XXSP,2013-01-27 14:08:00,
2013-01-27 08:13:00,50.5,45.5,30.11,South,180,4.0,11.2,83,0.00,,,0.00,WUHU21623XXSP,2013-01-27 14:13:00,
2013-01-27 08:18:00,50.5,45.8,30.11,West,270,1.6,8.7,84,0.00,,,0.00,WUHU21623XXSP,2013-01-27 14:18:00,
2013-01-27 08:23:00,50.5,45.8,30.10,SSW,202,4.7,12.3,84,0.00,,,0.00,WUHU21623XXSP,2013-01-27 14:23:00,
2013-01-27 08:28:00,50.5,45.8,30.09,SE,135,9.6,12.3,84,0.00,,,0.00,WUHU21623XXSP,2013-01-27 14:28:00,
2013-01-27 08:33:00,50.5,45.8,30.10,SSE,157,0.0,15.2,84,0.00,,,0.00,WUHU21623XXSP,2013-01-27 14:33:00,
2013-01-27 08:38:00,50.5,45.8,30.10,SSE,157,5.1,15.2,84,0.00,,,0.00,WUHU21623XXSP,2013-01-27 14:38:00,
2013-01-27 08:43:00,50.5,46.1,30.10,WNW,292,1.8,10.7,85,0.00,,,0.00,WUHU21623XXSP,2013-01-27 14:43:00,
2013-01-27 08:48:00,50.7,46.3,30.10,SSW,202,2.5,8.7,85,0.00,,,0.00,WUHU21623XXSP,2013-01-27 14:48:00,
2013-01-27 08:53:00,50.7,46.3,30.10,South,180,1.6,11.2,85,0.00,,,0.00,WUHU21623XXSP,2013-01-27 14:53:00,
2013-01-27 08:58:00,51.1,46.7,30.10,WSW,247,1.1,11.2,85,0.00,,,0.00,WUHU21623XXSP,2013-01-27 14:58:00,
2013-01-27 09:03:00,51.1,46.7,30.10,SSW,202,8.7,8.7,85,0.00,,,0.00,WUHU21623XXSP,2013-01-27 15:03:00,
2013-01-27 09:08:00,51.4,47.0,30.10,South,180,2.9,8.7,85,0.00,,,0.00,WUHU21623XXSP,2013-01-27 15:08:00,
2013-01-27 09:13:00,51.6,47.2,30.10,SSW,202,3.8,8.9,85,0.00,,,0.00,WUHU21623XXSP,2013-01-27 15:13:00,
2013-01-27 09:18:00,51.6,46.9,30.11,SW,225,2.5,8.9,84,0.00,,,0.00,WUHU21623XXSP,2013-01-27 15:18:00,
2013-01-27 09:23:00,51.6,46.9,30.10,SSW,202,5.8,8.3,84,0.00,,,0.00,WUHU21623XXSP,2013-01-27 15:23:00,
2013-01-27 09:28:00,51.4,46.7,30.10,SSW,202,5.8,11.0,84,0.00,,,0.00,WUHU21623XXSP,2013-01-27 15:28:00,
2013-01-27 09:33:00,51.4,46.7,30.10,SSW,202,8.9,12.1,84,0.00,,,0.00,WUHU21623XXSP,2013-01-27 15:33:00,
2013-01-27 09:38:00,51.4,46.7,30.11,SW,225,0.0,14.1,84,0.00,,,0.00,WUHU21623XXSP,2013-01-27 15:38:00,
2013-01-27 09:43:00,51.4,46.7,30.10,SSW,202,6.3,17.0,84,0.00,,,0.00,WUHU21623XXSP,2013-01-27 15:43:00,
2013-01-27 09:48:00,51.6,46.6,30.11,South,180,0.0,17.0,83,0.00,,,0.00,WUHU21623XXSP,2013-01-27 15:48:00,
2013-01-27 09:53:00,51.6,46.6,30.11,SW,225,3.4,8.1,83,0.00,,,0.00,WUHU21623XXSP,2013-01-27 15:53:00,
2013-01-27 09:58:00,51.6,46.6,30.11,WSW,247,0.7,10.1,83,0.00,,,0.00,WUHU21623XXSP,2013-01-27 15:58:00,
2013-01-27 10:03:00,52.0,47.0,30.12,SSW,202,4.3,10.1,83,0.00,,,0.00,WUHU21623XXSP,2013-01-27 16:03:00,
2013-01-27 10:08:00,52.0,47.0,30.12,SSW,202,6.5,10.1,83,0.00,,,0.00,WUHU21623XXSP,2013-01-27 16:08:00,
2013-01-27 10:13:00,52.3,47.3,30.11,West,270,3.8,10.1,83,0.00,,,0.00,WUHU21623XXSP,2013-01-27 16:13:00,
2013-01-27 10:18:00,52.3,47.0,30.12,South,180,0.0,8.3,82,0.00,,,0.00,WUHU21623XXSP,2013-01-27 16:18:00,
2013-01-27 10:23:00,52.5,47.2,30.12,West,270,3.1,8.3,82,0.00,,,0.00,WUHU21623XXSP,2013-01-27 16:23:00,
2013-01-27 10:28:00,52.5,47.2,30.12,WSW,247,3.8,7.4,82,0.00,,,0.00,WUHU21623XXSP,2013-01-27 16:28:00,
2013-01-27 10:33:00,52.5,47.2,30.13,SW,225,0.0,8.7,82,0.00,,,0.00,WUHU21623XXSP,2013-01-27 16:33:00,
2013-01-27 10:38:00,52.5,47.2,30.12,SSW,202,1.8,8.7,82,0.00,,,0.00,WUHU21623XXSP,2013-01-27 16:38:00,
2013-01-27 10:43:00,52.5,46.9,30.12,South,180,0.7,6.3,81,0.00,,,0.00,WUHU21623XXSP,2013-01-27 16:43:00,
2013-01-27 10:48:00,52.5,46.9,30.12,SSW,202,5.4,7.2,81,0.00,,,0.00,WUHU21623XXSP,2013-01-27 16:48:00,
2013-01-27 10:53:00,52.5,47.2,30.12,SSW,202,6.3,7.6,82,0.00,,,0.00,WUHU21623XXSP,2013-01-27 16:53:00,
2013-01-27 10:58:00,52.7,47.4,30.12,South,180,3.1,8.5,82,0.00,,,0.00,WUHU21623XXSP,2013-01-27 16:58:00,
2013-01-27 11:03:00,52.7,47.4,30.11,SW,225,4.7,8.5,82,0.00,,,0.00,WUHU21623XXSP,2013-01-27 17:03:00,
2013-01-27 11:08:00,52.9,47.6,30.11,SSW,202,2.7,9.8,82,0.00,,,0.00,WUHU21623XXSP,2013-01-27 17:08:00,
2013-01-27 11:13:00,53.2,47.9,30.11,South,180,8.3,10.1,82,0.00,,,0.00,WUHU21623XXSP,2013-01-27 17:13:00,
2013-01-27 11:18:00,53.4,48.1,30.10,SE,135,0.0,10.1,82,0.00,,,0.00,WUHU21623XXSP,2013-01-27 17:18:00,
2013-01-27 11:23:00,53.8,48.4,30.10,SSW,202,3.1,10.1,82,0.00,,,0.00,WUHU21623XXSP,2013-01-27 17:23:00,
2013-01-27 11:28:00,54.1,48.8,30.09,SW,225,0.0,10.1,82,0.00,,,0.00,WUHU21623XXSP,2013-01-27 17:28:00,
2013-01-27 11:33:00,54.5,49.4,30.10,South,180,0.0,8.9,83,0.00,,,0.00,WUHU21623XXSP,2013-01-27 17:33:00,
2013-01-27 11:38:00,54.9,49.4,30.09,ESE,112,0.0,11.2,82,0.00,,,0.00,WUHU21623XXSP,2013-01-27 17:38:00,
2013-01-27 11:43:00,55.0,49.3,30.09,SE,135,4.3,11.2,81,0.00,,,0.00,WUHU21623XXSP,2013-01-27 17:43:00,
2013-01-27 11:48:00,55.2,49.4,30.08,SSW,202,8.7,11.2,81,0.00,,,0.00,WUHU21623XXSP,2013-01-27 17:48:00,
2013-01-27 11:53:00,55.6,49.8,30.08,SW,225,3.8,14.5,81,0.00,,,0.00,WUHU21623XXSP,2013-01-27 17:53:00,
2013-01-27 11:58:00,55.8,50.0,30.08,East,90,4.9,14.5,81,0.00,,,0.00,WUHU21623XXSP,2013-01-27 17:58:00,
2013-01-27 12:03:00,55.9,49.8,30.07,West,270,4.5,17.0,80,0.00,,,0.00,WUHU21623XXSP,2013-01-27 18:03:00,
2013-01-27 12:08:00,56.1,50.0,30.06,South,180,15.2,17.0,80,0.00,,,0.00,WUHU21623XXSP,2013-01-27 18:08:00,
2013-01-27 12:13:00,56.1,50.0,30.06,SSW,202,2.5,15.2,80,0.00,,,0.00,WUHU21623XXSP,2013-01-27 18:13:00,
2013-01-27 12:18:00,56.3,50.2,30.05,SSE,157,3.6,13.9,80,0.00,,,0.00,WUHU21623XXSP,2013-01-27 18:18:00,
2013-01-27 12:23:00,56.3,50.2,30.05,South,180,13.2,13.9,80,0.00,,,0.00,WUHU21623XXSP,2013-01-27 18:23:00,
2013-01-27 12:28:00,56.1,50.0,30.05,WSW,247,2.5,13.2,80,0.00,,,0.00,WUHU21623XXSP,2013-01-27 18:28:00,
2013-01-27 12:33:00,56.1,50.0,30.05,SSW,202,3.4,15.2,80,0.00,,,0.00,WUHU21623XXSP,2013-01-27 18:33:00,
2013-01-27 12:38:00,56.1,50.0,30.05,SSW,202,6.0,15.2,80,0.00,,,0.00,WUHU21623XXSP,2013-01-27 18:38:00,
2013-01-27 12:43:00,56.1,50.0,30.04,SSW,202,8.7,14.1,80,0.00,,,0.00,WUHU21623XXSP,2013-01-27 18:43:00,
2013-01-27 12:48:00,56.3,50.2,30.04,SSW,202,4.3,12.1,80,0.00,,,0.00,WUHU21623XXSP,2013-01-27 18:48:00,
2013-01-27 12:53:00,56.5,50.4,30.03,SSE,157,3.4,14.3,80,0.00,,,0.00,WUHU21623XXSP,2013-01-27 18:53:00,
2013-01-27 12:58:00,56.8,50.7,30.03,West,270,4.5,14.3,80,0.00,,,0.00,WUHU21623XXSP,2013-01-27 18:58:00,
2013-01-27 13:03:00,57.0,50.9,30.04,South,180,6.0,11.4,80,0.00,,,0.00,WUHU21623XXSP,2013-01-27 19:03:00,
2013-01-27 13:08:00,57.6,51.1,30.02,South,180,4.9,11.4,79,0.00,,,0.00,WUHU21623XXSP,2013-01-27 19:08:00,
2013-01-27 13:13:00,57.7,51.3,30.02,South,180,4.0,10.5,79,0.00,,,0.00,WUHU21623XXSP,2013-01-27 19:13:00,
2013-01-27 13:18:00,58.1,51.3,30.03,SE,135,2.0,11.4,78,0.00,,,0.00,WUHU21623XXSP,2013-01-27 19:18:00,
2013-01-27 13:23:00,58.3,51.4,30.02,WSW,247,4.0,11.4,78,0.00,,,0.00,WUHU21623XXSP,2013-01-27 19:23:00,
2013-01-27 13:28:00,58.6,51.4,30.02,SSE,157,5.1,11.6,77,0.00,,,0.00,WUHU21623XXSP,2013-01-27 19:28:00,
2013-01-27 13:33:00,58.8,51.6,30.02,SSW,202,5.4,11.6,77,0.00,,,0.00,WUHU21623XXSP,2013-01-27 19:33:00,
2013-01-27 13:38:00,58.8,51.6,30.02,SSW,202,4.7,11.6,77,0.00,,,0.00,WUHU21623XXSP,2013-01-27 19:38:00,
2013-01-27 13:43:00,58.8,51.3,30.02,West,270,5.1,7.4,76,0.00,,,0.00,WUHU21623XXSP,2013-01-27 19:43:00,
2013-01-27 13:48:00,59.2,51.6,30.02,WSW,247,5.1,10.7,76,0.00,,,0.00,WUHU21623XXSP,2013-01-27 19:48:00,
2013-01-27 13:53:00,59.4,51.8,30.02,WSW,247,2.7,15.2,76,0.00,,,0.00,WUHU21623XXSP,2013-01-27 19:53:00,
2013-01-27 13:58:00,59.5,51.6,30.02,West,270,4.5,15.2,75,0.00,,,0.00,WUHU21623XXSP,2013-01-27 19:58:00,
2013-01-27 14:03:00,59.4,51.4,30.02,SSW,202,2.9,12.5,75,0.00,,,0.00,WUHU21623XXSP,2013-01-27 20:03:00,
2013-01-27 14:08:00,59.0,51.1,30.02,SSW,202,2.5,12.3,75,0.00,,,0.00,WUHU21623XXSP,2013-01-27 20:08:00,
2013-01-27 14:13:00,58.8,50.9,30.02,WSW,247,2.9,11.0,75,0.00,,,0.00,WUHU21623XXSP,2013-01-27 20:13:00,
2013-01-27 14:18:00,58.8,51.3,30.01,SSW,202,8.7,11.0,76,0.00,,,0.00,WUHU21623XXSP,2013-01-27 20:18:00,
2013-01-27 14:23:00,58.6,51.1,30.01,SSW,202,7.6,15.9,76,0.00,,,0.00,WUHU21623XXSP,2013-01-27 20:23:00,
2013-01-27 14:28:00,58.5,50.9,30.01,WSW,247,6.7,15.9,76,0.00,,,0.00,WUHU21623XXSP,2013-01-27 20:28:00,
2013-01-27 14:33:00,58.3,51.1,30.02,West,270,3.8,13.0,77,0.00,,,0.00,WUHU21623XXSP,2013-01-27 20:33:00,
2013-01-27 14:38:00,58.3,51.1,30.02,SSW,202,4.3,13.0,77,0.00,,,0.00,WUHU21623XXSP,2013-01-27 20:38:00,
2013-01-27 14:43:00,58.1,50.9,30.02,SSE,157,4.7,9.6,77,0.00,,,0.00,WUHU21623XXSP,2013-01-27 20:43:00,
2013-01-27 14:48:00,58.3,51.1,30.01,SSW,202,13.6,13.6,77,0.00,,,0.00,WUHU21623XXSP,2013-01-27 20:48:00,
2013-01-27 14:53:00,58.3,51.1,30.01,SSW,202,4.9,13.6,77,0.00,,,0.00,WUHU21623XXSP,2013-01-27 20:53:00,
2013-01-27 14:58:00,58.6,51.4,30.01,NNE,22,0.0,10.5,77,0.00,,,0.00,WUHU21623XXSP,2013-01-27 20:58:00,
2013-01-27 15:03:00,58.6,51.4,30.02,South,180,0.0,12.5,77,0.00,,,0.00,WUHU21623XXSP,2013-01-27 21:03:00,
2013-01-27 15:08:00,58.6,51.4,30.02,SE,135,4.7,12.5,77,0.00,,,0.00,WUHU21623XXSP,2013-01-27 21:08:00,
2013-01-27 15:13:00,58.5,51.3,30.01,WSW,247,6.0,7.4,77,0.00,,,0.00,WUHU21623XXSP,2013-01-27 21:13:00,
2013-01-27 15:18:00,58.3,51.1,30.01,SSW,202,2.9,7.4,77,0.00,,,0.00,WUHU21623XXSP,2013-01-27 21:18:00,
2013-01-27 15:23:00,58.3,51.1,30.02,SSW,202,3.6,8.3,77,0.00,,,0.00,WUHU21623XXSP,2013-01-27 21:23:00,
2013-01-27 15:28:00,58.1,50.9,30.01,SSW,202,1.3,11.0,77,0.00,,,0.00,WUHU21623XXSP,2013-01-27 21:28:00,
2013-01-27 15:33:00,57.9,50.7,30.01,SSW,202,5.6,11.0,77,0.00,,,0.00,WUHU21623XXSP,2013-01-27 21:33:00,
2013-01-27 15:38:00,57.9,50.7,30.01,West,270,9.6,10.3,77,0.00,,,0.00,WUHU21623XXSP,2013-01-27 21:38:00,
2013-01-27 15:43:00,57.7,50.5,30.01,SSE,157,6.5,11.0,77,0.00,,,0.00,WUHU21623XXSP,2013-01-27 21:43:00,
2013-01-27 15:48:00,57.6,50.7,30.01,SSW,202,3.8,13.2,78,0.00,,,0.00,WUHU21623XXSP,2013-01-27 21:48:00,
2013-01-27 15:53:00,57.4,50.5,30.01,South,180,0.0,13.2,78,0.00,,,0.00,WUHU21623XXSP,2013-01-27 21:53:00,
2013-01-27 15:58:00,57.4,50.5,30.01,SSW,202,7.8,7.8,78,0.00,,,0.00,WUHU21623XXSP,2013-01-27 21:58:00,
2013-01-27 16:03:00,57.4,50.5,30.01,SE,135,3.8,11.2,78,0.00,,,0.00,WUHU21623XXSP,2013-01-27 22:03:00,
2013-01-27 16:08:00,57.2,50.4,30.01,SSE,157,3.4,13.9,78,0.00,,,0.00,WUHU21623XXSP,2013-01-27 22:08:00,
2013-01-27 16:13:00,57.0,50.2,30.00,SSW,202,1.1,13.9,78,0.00,,,0.00,WUHU21623XXSP,2013-01-27 22:13:00,
2013-01-27 16:18:00,57.0,50.2,29.99,SE,135,3.4,9.4,78,0.00,,,0.00,WUHU21623XXSP,2013-01-27 22:18:00,
2013-01-27 16:23:00,57.0,50.2,30.00,SSW,202,6.9,6.9,78,0.00,,,0.00,WUHU21623XXSP,2013-01-27 22:23:00,
2013-01-27 16:28:00,57.0,50.2,29.99,SSW,202,7.4,14.1,78,0.00,,,0.00,WUHU21623XXSP,2013-01-27 22:28:00,
2013-01-27 16:33:00,57.0,50.2,30.00,SSW,202,0.0,14.1,78,0.00,,,0.00,WUHU21623XXSP,2013-01-27 22:33:00,
2013-01-27 16:38:00,57.0,50.2,30.00,SSE,157,5.6,13.4,78,0.00,,,0.00,WUHU21623XXSP,2013-01-27 22:38:00,
2013-01-27 16:43:00,57.0,50.2,30.00,South,180,0.0,8.3,78,0.00,,,0.00,WUHU21623XXSP,2013-01-27 22:43:00,
2013-01-27 16:48:00,57.4,50.9,30.00,SW,225,0.0,10.1,79,0.00,,,0.00,WUHU21623XXSP,2013-01-27 22:48:00,
2013-01-27 16:53:00,57.4,50.9,30.00,ESE,112,1.6,10.1,79,0.00,,,0.00,WUHU21623XXSP,2013-01-27 22:53:00,
2013-01-27 16:58:00,57.4,50.9,30.00,South,180,4.0,9.2,79,0.00,,,0.00,WUHU21623XXSP,2013-01-27 22:58:00,
2013-01-27 17:03:00,57.4,50.9,30.00,South,180,4.3,8.7,79,0.00,,,0.00,WUHU21623XXSP,2013-01-27 23:03:00,
2013-01-27 17:08:00,57.4,50.9,30.00,SW,225,0.0,6.3,79,0.00,,,0.00,WUHU21623XXSP,2013-01-27 23:08:00,
2013-01-27 17:13:00,57.4,50.9,30.00,South,180,4.7,6.7,79,0.00,,,0.00,WUHU21623XXSP,2013-01-27 23:13:00,
2013-01-27 17:18:00,57.2,50.7,30.01,SSW,202,5.1,7.6,79,0.00,,,0.00,WUHU21623XXSP,2013-01-27 23:18:00,
2013-01-27 17:23:00,57.0,50.5,30.01,SSW,202,2.9,11.0,79,0.00,,,0.00,WUHU21623XXSP,2013-01-27 23:23:00,
2013-01-27 17:28:00,57.0,50.9,30.01,SE,135,2.7,11.0,80,0.00,,,0.00,WUHU21623XXSP,2013-01-27 23:28:00,
2013-01-27 17:33:00,56.8,50.7,30.01,SE,135,0.0,9.6,80,0.00,,,0.00,WUHU21623XXSP,2013-01-27 23:33:00,
2013-01-27 17:38:00,56.5,50.4,30.01,SSW,202,2.7,10.1,80,0.00,,,0.00,WUHU21623XXSP,2013-01-27 23:38:00,
2013-01-27 17:43:00,56.5,50.4,30.01,SSW,202,3.4,10.1,80,0.00,,,0.00,WUHU21623XXSP,2013-01-27 23:43:00,
2013-01-27 17:48:00,56.1,50.3,30.01,South,180,5.6,8.9,81,0.00,,,0.00,WUHU21623XXSP,2013-01-27 23:48:00,
2013-01-27 17:53:00,56.1,50.3,30.01,South,180,3.1,6.7,81,0.00,,,0.00,WUHU21623XXSP,2013-01-27 23:53:00,
2013-01-27 17:58:00,55.9,50.1,30.01,South,180,6.9,9.4,81,0.00,,,0.00,WUHU21623XXSP,2013-01-27 23:58:00,
2013-01-27 18:03:00,55.8,50.3,30.01,SSW,202,7.2,11.4,82,0.00,,,0.00,WUHU21623XXSP,2013-01-28 00:03:00,
2013-01-27 18:08:00,55.8,50.3,30.01,SSW,202,4.3,11.4,82,0.00,,,0.00,WUHU21623XXSP,2013-01-28 00:08:00,
2013-01-27 18:13:00,55.8,50.3,30.01,SSE,157,5.8,8.3,82,0.00,,,0.00,WUHU21623XXSP,2013-01-28 00:13:00,
2013-01-27 18:18:00,55.9,50.5,30.01,SSW,202,2.2,8.5,82,0.00,,,0.00,WUHU21623XXSP,2013-01-28 00:18:00,
2013-01-27 18:23:00,55.9,50.5,30.00,SW,225,2.2,8.5,82,0.00,,,0.00,WUHU21623XXSP,2013-01-28 00:23:00,
2013-01-27 18:28:00,55.9,50.5,30.01,WSW,247,2.7,10.5,82,0.00,,,0.00,WUHU21623XXSP,2013-01-28 00:28:00,
2013-01-27 18:33:00,55.9,50.5,30.01,South,180,1.8,10.5,82,0.00,,,0.00,WUHU21623XXSP,2013-01-28 00:33:00,
2013-01-27 18:38:00,55.9,50.5,30.01,SSW,202,2.0,10.1,82,0.00,,,0.00,WUHU21623XXSP,2013-01-28 00:38:00,
2013-01-27 18:43:00,56.1,50.6,30.01,SE,135,4.7,11.6,82,0.00,,,0.00,WUHU21623XXSP,2013-01-28 00:43:00,
2013-01-27 18:48:00,56.3,50.8,30.01,SSE,157,4.7,11.6,82,0.00,,,0.00,WUHU21623XXSP,2013-01-28 00:48:00,
2013-01-27 18:53:00,56.3,50.8,30.01,SE,135,2.9,9.2,82,0.00,,,0.00,WUHU21623XXSP,2013-01-28 00:53:00,
2013-01-27 18:58:00,56.5,51.0,30.01,SSE,157,0.0,9.6,82,0.00,,,0.00,WUHU21623XXSP,2013-01-28 00:58:00,
2013-01-27 19:03:00,56.5,51.0,30.01,South,180,7.4,9.6,82,0.00,,,0.00,WUHU21623XXSP,2013-01-28 01:03:00,
2013-01-27 19:08:00,56.5,51.0,30.01,South,180,4.7,8.7,82,0.00,,,0.00,WUHU21623XXSP,2013-01-28 01:08:00,
2013-01-27 19:13:00,56.7,51.2,30.02,SW,225,0.0,8.7,82,0.00,,,0.00,WUHU21623XXSP,2013-01-28 01:13:00,
2013-01-27 19:18:00,56.8,51.4,30.01,SSW,202,3.4,6.7,82,0.00,,,0.00,WUHU21623XXSP,2013-01-28 01:18:00,
2013-01-27 19:23:00,56.8,51.4,30.01,WSW,247,1.8,9.6,82,0.00,,,0.00,WUHU21623XXSP,2013-01-28 01:23:00,
2013-01-27 19:28:00,56.8,51.4,30.01,SSE,157,0.0,11.9,82,0.00,,,0.00,WUHU21623XXSP,2013-01-28 01:28:00,
2013-01-27 19:33:00,56.8,51.4,30.00,South,180,0.0,11.9,82,0.00,,,0.00,WUHU21623XXSP,2013-01-28 01:33:00,
2013-01-27 19:38:00,56.8,51.4,30.00,SSW,202,2.0,7.8,82,0.00,,,0.00,WUHU21623XXSP,2013-01-28 01:38:00,
2013-01-27 19:43:00,57.0,51.5,30.00,SW,225,3.4,10.7,82,0.00,,,0.00,WUHU21623XXSP,2013-01-28 01:43:00,
2013-01-27 19:48:00,57.0,51.5,30.01,South,180,0.0,10.7,82,0.00,,,0.00,WUHU21623XXSP,2013-01-28 01:48:00,
2013-01-27 19:53:00,57.0,51.5,30.01,SSW,202,0.0,9.6,82,0.00,,,0.00,WUHU21623XXSP,2013-01-28 01:53:00,
2013-01-27 19:58:00,57.4,51.9,30.00,SSE,157,0.0,8.1,82,0.00,,,0.00,WUHU21623XXSP,2013-01-28 01:58:00,
2013-01-27 20:03:00,57.4,51.9,30.01,SSE,157,0.0,8.3,82,0.00,,,0.00,WUHU21623XXSP,2013-01-28 02:03:00,
2013-01-27 20:08:00,57.4,51.9,30.01,South,180,2.9,9.8,82,0.00,,,0.00,WUHU21623XXSP,2013-01-28 02:08:00,
2013-01-27 20:13:00,57.6,52.1,30.01,SSW,202,2.9,9.8,82,0.00,,,0.00,WUHU21623XXSP,2013-01-28 02:13:00,
2013-01-27 20:18:00,57.7,52.3,30.01,South,180,0.0,9.6,82,0.00,,,0.00,WUHU21623XXSP,2013-01-28 02:18:00,
2013-01-27 20:23:00,57.7,52.3,30.01,SSW,202,2.7,6.3,82,0.00,,,0.00,WUHU21623XXSP,2013-01-28 02:23:00,
2013-01-27 20:28:00,57.9,52.4,30.00,WSW,247,0.0,8.3,82,0.00,,,0.00,WUHU21623XXSP,2013-01-28 02:28:00,
2013-01-27 20:33:00,57.9,52.4,30.00,WSW,247,0.0,8.3,82,0.00,,,0.00,WUHU21623XXSP,2013-01-28 02:33:00,
2013-01-27 20:38:00,58.1,52.6,30.00,SSW,202,2.2,8.1,82,0.00,,,0.00,WUHU21623XXSP,2013-01-28 02:38:00,
2013-01-27 20:43:00,58.3,52.8,30.01,WSW,247,0.0,11.9,82,0.00,,,0.00,WUHU21623XXSP,2013-01-28 02:43:00,
2013-01-27 20:48:00,58.3,52.8,30.00,SSW,202,4.5,11.9,82,0.00,,,0.00,WUHU21623XXSP,2013-01-28 02:48:00,
2013-01-27 20:53:00,58.5,53.0,30.00,SSE,157,4.0,11.9,82,0.00,,,0.00,WUHU21623XXSP,2013-01-28 02:53:00,
2013-01-27 20:58:00,58.6,53.2,30.00,SE,135,0.0,11.9,82,0.00,,,0.00,WUHU21623XXSP,2013-01-28 02:58:00,
2013-01-27 21:03:00,58.6,53.2,30.00,SW,225,2.0,13.9,82,0.00,,,0.00,WUHU21623XXSP,2013-01-28 03:03:00,
2013-01-27 21:08:00,58.6,53.2,30.00,South,180,0.0,13.9,82,0.00,,,0.00,WUHU21623XXSP,2013-01-28 03:08:00,
2013-01-27 21:13:00,58.8,53.3,30.00,SE,135,0.0,13.9,82,0.00,,,0.00,WUHU21623XXSP,2013-01-28 03:13:00,
2013-01-27 21:18:00,58.8,53.3,30.00,West,270,2.2,13.9,82,0.00,,,0.00,WUHU21623XXSP,2013-01-28 03:18:00,
2013-01-27 21:23:00,58.8,53.3,30.00,West,270,2.0,10.7,82,0.00,,,0.00,WUHU21623XXSP,2013-01-28 03:23:00,
2013-01-27 21:28:00,58.8,53.3,30.00,South,180,6.0,12.5,82,0.00,,,0.00,WUHU21623XXSP,2013-01-28 03:28:00,
2013-01-27 21:33:00,59.4,53.9,29.99,SW,225,0.0,12.8,82,0.00,,,0.00,WUHU21623XXSP,2013-01-28 03:33:00,
2013-01-27 21:38:00,59.4,53.6,29.99,SSW,202,16.1,16.1,81,0.00,,,0.00,WUHU21623XXSP,2013-01-28 03:38:00,
2013-01-27 21:43:00,59.4,53.6,29.99,South,180,3.8,16.1,81,0.00,,,0.00,WUHU21623XXSP,2013-01-28 03:43:00,
2013-01-27 21:48:00,59.4,53.6,29.99,SSE,157,0.0,10.1,81,0.00,,,0.00,WUHU21623XXSP,2013-01-28 03:48:00,
2013-01-27 21:53:00,59.4,53.6,29.99,SSW,202,6.9,11.0,81,0.00,,,0.00,WUHU21623XXSP,2013-01-28 03:53:00,
2013-01-27 21:58:00,59.4,53.6,29.99,SW,225,8.7,11.0,81,0.00,,,0.00,WUHU21623XXSP,2013-01-28 03:58:00,
2013-01-27 22:03:00,59.4,53.9,29.99,SSW,202,12.3,17.2,82,0.00,,,0.00,WUHU21623XXSP,2013-01-28 04:03:00,
2013-01-27 22:08:00,59.5,54.1,29.99,SE,135,0.0,19.9,82,0.00,,,0.00,WUHU21623XXSP,2013-01-28 04:08:00,
2013-01-27 22:13:00,59.5,54.1,29.99,SE,135,0.0,19.9,82,0.00,,,0.00,WUHU21623XXSP,2013-01-28 04:13:00,
2013-01-27 22:18:00,59.5,53.7,29.99,South,180,0.0,9.4,81,0.00,,,0.00,WUHU21623XXSP,2013-01-28 04:18:00,
2013-01-27 22:23:00,59.5,53.7,29.99,SSE,157,5.4,10.5,81,0.00,,,0.00,WUHU21623XXSP,2013-01-28 04:23:00,
2013-01-27 22:28:00,59.5,54.1,29.99,South,180,2.2,10.5,82,0.00,,,0.00,WUHU21623XXSP,2013-01-28 04:28:00,
2013-01-27 22:33:00,59.5,54.1,29.99,SSW,202,0.0,9.6,82,0.00,,,0.00,WUHU21623XXSP,2013-01-28 04:33:00,
2013-01-27 22:38:00,59.5,54.1,29.99,SSE,157,0.0,9.6,82,0.00,,,0.00,WUHU21623XXSP,2013-01-28 04:38:00,
2013-01-27 22:43:00,59.5,54.1,29.99,WSW,247,5.1,8.7,82,0.00,,,0.00,WUHU21623XXSP,2013-01-28 04:43:00,
2013-01-27 22:48:00,59.5,54.1,30.00,SSW,202,0.0,9.2,82,0.00,,,0.00,WUHU21623XXSP,2013-01-28 04:48:00,
2013-01-27 22:53:00,59.4,53.9,30.00,SSW,202,0.0,9.2,82,0.00,,,0.00,WUHU21623XXSP,2013-01-28 04:53:00,
2013-01-27 22:58:00,59.2,53.7,30.00,SSW,202,3.4,6.5,82,0.00,,,0.00,WUHU21623XXSP,2013-01-28 04:58:00,
2013-01-27 23:00:00,59.2,53.7,30.00,SSW,202,0.0,6.5,82,0.00,,,0.00,WUHU21623XXSP,2013-01-28 05:00:00,
2013-01-27 23:02:00,59.2,53.7,30.00,SSW,202,0.0,6.0,82,0.00,,,0.00,WUHU21623XXSP,2013-01-28 05:02:00,
2013-01-27 23:03:00,59.2,53.7,30.00,South,180,0.0,6.0,82,0.00,,,0.00,WUHU21623XXSP,2013-01-28 05:03:00,
2013-01-27 23:08:00,58.8,53.3,30.00,SSW,202,0.0,6.9,82,0.00,,,0.00,WUHU21623XXSP,2013-01-28 05:08:00,
2013-01-27 23:13:00,58.8,53.3,30.00,SW,225,0.0,7.6,82,0.00,,,0.00,WUHU21623XXSP,2013-01-28 05:13:00,
2013-01-27 23:18:00,58.8,53.7,30.00,SSE,157,0.0,10.5,83,0.00,,,0.00,WUHU21623XXSP,2013-01-28 05:18:00,
2013-01-27 23:23:00,58.8,53.7,30.00,SSW,202,3.4,10.5,83,0.00,,,0.00,WUHU21623XXSP,2013-01-28 05:23:00,
2013-01-27 23:28:00,58.8,53.7,30.00,SSW,202,0.0,11.6,83,0.00,,,0.00,WUHU21623XXSP,2013-01-28 05:28:00,
2013-01-27 23:33:00,58.8,53.7,30.00,SW,225,0.0,11.6,83,0.00,,,0.00,WUHU21623XXSP,2013-01-28 05:33:00,
2013-01-27 23:38:00,59.0,53.9,30.00,SW,225,0.0,7.8,83,0.00,,,0.00,WUHU21623XXSP,2013-01-28 05:38:00,
2013-01-27 23:43:00,59.0,53.9,30.00,South,180,4.7,8.3,83,0.00,,,0.00,WUHU21623XXSP,2013-01-28 05:43:00,
2013-01-27 23:48:00,59.0,53.9,30.00,South,180,7.6,8.3,83,0.00,,,0.00,WUHU21623XXSP,2013-01-28 05:48:00,
2013-01-27 23:53:00,59.4,54.2,30.00,SW,225,9.2,12.8,83,0.00,,,0.00,WUHU21623XXSP,2013-01-28 05:53:00,
2013-01-27 23:58:00,59.4,54.2,30.00,SSW,202,5.8,12.8,83,0.00,,,0.00,WUHU21623XXSP,2013-01-28 05:58:00,